Regional Weather Roundup
Issued by NWS

Home | Current Version | Previous Version | Graphics & Text | Print | Product List | Glossary On
Versions: 1 2 3 4 5 6 7 8 9 10 11 12 13 14 15 16 17 18 19 20 21 22 23 24 25 26 27 28 29 30 31 32 33 34 35 36 37 38 39 40 41 42 43 44 45 46 47 48 49 50
274
ASUS43 KIND 110609
RWRIN

WEATHER ROUNDUP FOR INDIANA
NATIONAL WEATHER SERVICE INDIANAPOLIS IN
100 AM EST THU FEB 11 2016

NOTE: "FAIR" INDICATES FEW OR NO CLOUDS BELOW 12,000 FEET WITH NO
SIGNIFICANT WEATHER AND/OR OBSTRUCTIONS TO VISIBILITY.

* - STATION DOES NOT REPORT WEATHER SUCH AS PRECIPITATION OR FOG.

+ - STATION NOT QUALITY CONTROLLED BY THE NATIONAL WEATHER SERVICE.
    USE DATA WITH CAUTION...ESPECIALLY DEWPOINT AND RELATIVE
    HUMIDITY OBSERVATIONS.

INZ001>003-010>013-019-020-110700-
NORTHWEST INDIANA

CITY           SKY/WX    TMP DP  RH WIND       PRES   REMARKS
GARY /AIRPORT/ PTCLDY    15   2  56 W7        30.17S WCI   5
KNOX *+        PTCLDY    12   7  79 W9        30.13F WCI   0
LA PORTE +     MOCLDY    16  10  74 W10       30.12F WCI   4
6HR MIN TEMP:  16; 6HR MAX TEMP:  18;

MICHIGAN CITY+ FLURRIES  18  10  73 NW6       30.13F WCI   9
MONTICELLO +   PTCLDY    10   2  67 W3        30.14S
6HR MIN TEMP:   9; 6HR MAX TEMP:  17;

RENSSELAER +   PTCLDY    14   5  67 NW3       30.15S
VALPARAISO     PTCLDY    12   6  77 W10       30.14F WCI  -1
6HR MIN TEMP:  12; 6HR MAX TEMP:  16; 6HR PCP: TRACE;


$$

LMZ046-743>745-110700-
SOUTHERN LAKE MICHIGAN

STATION/POSITION TIME  TEMP    WIND        PRES    WAVE
                       AIR SEA DIR/SP/G            HT
                 (UTC) (F)     (DEG/KT/KT) (MB)    (FT)
BURNS HARBOR     0500   17     290/ 11/ 17 1021.3S
MICHIGAN CITY    0500   17     270/ 17/ 19   N/A

$$

INZ004-005-014>016-021>024-110700-
NORTH CENTRAL INDIANA

CITY           SKY/WX    TMP DP  RH WIND       PRES   REMARKS
GOSHEN         CLOUDY    14  10  84 W13       30.09S WCI   0
6HR MIN TEMP:  13; 6HR MAX TEMP:  15; 6HR PCP: TRACE;

LOGANSPORT +   CLEAR     14   1  57 NW5       30.14S WCI   6
PERU/GRISSOM   PTCLDY    10   3  73 W6        30.10F WCI   1
6HR MIN TEMP:  10; 6HR MAX TEMP:  16; 6HR PCP: TRACE;

ROCHESTER +    MOCLDY    18   7  62 W6        30.12F WCI   9
SOUTH BEND     LGT SNOW  14  11  87 W12       30.11S FOG     WCI   0
6HR MIN TEMP:  13; 6HR MAX TEMP:  14; 6HR PCP:  0.03;

WARSAW +       FLURRIES  14  10  85 W12       30.10S WCI   0

$$

INZ006>009-017-018-025>027-110700-
NORTHEAST INDIANA

CITY           SKY/WX    TMP DP  RH WIND       PRES   REMARKS
ANGOLA *+      CLOUDY    12   9  85 W5        30.05S WCI   4
AUBURN +       LGT SNOW  16  10  79 W7        30.09S WCI   6
FORT WAYNE     MOCLDY    16   6  65 W10       30.11R WCI   4
6HR MIN TEMP:  14; 6HR MAX TEMP:  18; 6HR PCP: TRACE;

HUNTINGTON +   CLOUDY    13   3  65 W6        30.11S WCI   4
6HR MIN TEMP:  10; 6HR MAX TEMP:  15;


$$

INZ028-029-035-036-043>045-051>053-110700-
WEST CENTRAL INDIANA

CITY           SKY/WX    TMP DP  RH WIND       PRES   REMARKS
GREENCASTLE +  CLEAR     12   3  67 CALM      30.15S
LAFAYETTE      CLOUDY     7   4  87 CALM      30.15F
6HR MIN TEMP:   7; 6HR MAX TEMP:  15;

TERRE HAUTE    PTCLDY    14   7  73 CALM      30.17F
6HR MIN TEMP:  12; 6HR MAX TEMP:  20;


$$

INZ030>032-037>040-046>048-054>057-064-065-110700-
CENTRAL INDIANA

CITY           SKY/WX    TMP DP  RH WIND       PRES   REMARKS
FISHERS *+     CLEAR     10   7  85 W5        30.14S WCI   2
FRANKFORT +    CLEAR      5  -2  71 SW6       30.14S WCI  -5
6HR MIN TEMP:   5; 6HR MAX TEMP:  15;

GREENWOOD *+   PTCLDY    14   9  79 CALM      30.15S
INDIANAPOLIS   PTCLDY    11   4  73 W5        30.13F WCI   3
6HR MIN TEMP:  11; 6HR MAX TEMP:  16;

-EAGLE CREEK   PTCLDY    14   6  70 W3        30.14S
6HR MIN TEMP:  14; 6HR MAX TEMP:  16;

KOKOMO *+      CLEAR     10   1  67 NW6       30.12F WCI   1
6HR MIN TEMP:  10; 6HR MAX TEMP:  16;

MARION +       CLEAR      4  -3  69 W6        30.12F WCI  -6
MT COMFORT *+  PTCLDY    10   5  79 W7        30.13F WCI   0
SHELBYVILLE    CLOUDY    14   7  73 W3        30.14S
6HR MIN TEMP:  11; 6HR MAX TEMP:  17;

ZIONSVILLE +   CLEAR      6   3  85 W5        30.14S WCI  -3
6HR MIN TEMP:   5; 6HR MAX TEMP:  13;


$$

INZ033-034-041-042-049-050-058-059-110700-
EAST CENTRAL INDIANA

CITY           SKY/WX    TMP DP  RH WIND       PRES   REMARKS
MUNCIE         MOCLDY    13   7  77 W5        30.11F WCI   5
6HR MIN TEMP:  13; 6HR MAX TEMP:  16; 6HR PCP: TRACE;


$$

INZ060-061-067>069-081>083-085>088-110700-
SOUTHWEST INDIANA

CITY           SKY/WX    TMP DP  RH WIND       PRES   REMARKS
EVANSVILLE     CLOUDY    24  16  71 W3        30.20F
6HR MIN TEMP:  22; 6HR MAX TEMP:  24; 6HR PCP: TRACE;

HUNTINGBURG *+ CLOUDY    21  16  79 W14G26    30.19S WCI   8
6HR MIN TEMP:  18; 6HR MAX TEMP:  21;

WASHINGTON +   CLOUDY    19  14  81 CALM      30.19S
6HR MIN TEMP:  15; 6HR MAX TEMP:  22;


$$

INZ062-063-066-070>080-084-089>092-110700-
SOUTH CENTRAL AND SOUTHEAST INDIANA

CITY           SKY/WX    TMP DP  RH WIND       PRES   REMARKS
BEDFORD +      CLEAR     18  10  73 CALM      30.16F
BLOOMINGTON    CLEAR     11   6  81 NW3       30.15S
6HR MIN TEMP:   9; 6HR MAX TEMP:  19;

MADISON *+     CLOUDY    16  10  79 CALM      30.18S
NORTH VERNON + PTCLDY     9   5  85 CALM      30.16S
SEYMOUR +      CLEAR     18  10  73 CALM      30.17S

$$





USA.gov is the U.S. government's official web portal to all federal, state and local government web resources and services.